TimeEDT,TemperatureF,Dew PointF,Humidity,Sea Level PressureIn,VisibilityMPH,Wind Direction,Wind SpeedMPH,Gust SpeedMPH,PrecipitationIn,Events,Conditions,WindDirDegrees,DateUTC
12:14 AM,30.0,20.7,68,29.94,5.0,SW,6.9,-,N/A,Snow,Light Snow,220,2013-03-15 04:14:00
12:35 AM,28.0,24.1,85,29.93,1.5,SSW,6.9,-,N/A,Snow,Light Snow,200,2013-03-15 04:35:00
12:55 AM,27.1,24.8,91,29.91,2.0,SSW,6.9,-,N/A,Snow,Light Snow,200,2013-03-15 04:55:00
1:15 AM,27.1,25.2,92,29.90,2.5,SSW,8.1,-,N/A,Snow,Light Snow,200,2013-03-15 05:15:00
1:35 AM,27.3,25.3,92,29.88,2.5,SSW,8.1,-,N/A,Snow,Light Snow,210,2013-03-15 05:35:00
2:15 AM,27.9,26.4,94,29.87,2.0,SSW,5.8,-,N/A,Snow,Light Snow,210,2013-03-15 06:15:00
2:35 AM,28.2,27.0,95,29.86,2.5,SSW,5.8,-,N/A,Snow,Light Snow,210,2013-03-15 06:35:00
2:55 AM,29.8,28.9,96,29.85,4.0,WSW,9.2,-,N/A,Snow,Light Snow,250,2013-03-15 06:55:00
3:15 AM,31.6,29.3,91,29.83,5.0,WSW,12.7,17.3,N/A,Snow,Light Snow,250,2013-03-15 07:15:00
3:35 AM,32.0,29.3,90,29.82,7.0,WSW,12.7,20.7,N/A,,Overcast,250,2013-03-15 07:35:00
3:55 AM,32.0,28.9,88,29.82,10.0,West,11.5,20.7,N/A,,Overcast,260,2013-03-15 07:55:00
4:15 AM,32.2,28.4,86,29.81,10.0,WSW,18.4,25.3,N/A,,Overcast,250,2013-03-15 08:15:00
4:35 AM,32.2,28.4,86,29.80,10.0,West,15.0,18.4,N/A,,Overcast,260,2013-03-15 08:35:00
4:55 AM,32.4,28.4,85,29.80,10.0,West,10.4,21.9,N/A,,Overcast,260,2013-03-15 08:55:00
5:15 AM,32.4,28.4,85,29.80,10.0,West,11.5,18.4,N/A,,Overcast,270,2013-03-15 09:15:00
5:35 AM,32.5,28.4,85,29.80,10.0,West,10.4,19.6,N/A,,Overcast,270,2013-03-15 09:35:00
5:55 AM,32.5,28.4,85,29.80,10.0,West,11.5,23.0,N/A,,Overcast,280,2013-03-15 09:55:00
6:15 AM,32.0,28.9,88,29.81,5.0,WNW,17.3,24.2,N/A,,Overcast,290,2013-03-15 10:15:00
6:35 AM,31.6,28.4,88,29.82,10.0,WNW,13.8,20.7,N/A,,Overcast,290,2013-03-15 10:35:00
6:55 AM,31.5,27.9,87,29.82,10.0,West,11.5,18.4,N/A,,Overcast,280,2013-03-15 10:55:00
7:15 AM,31.1,28.0,88,29.83,10.0,WNW,12.7,-,N/A,,Overcast,300,2013-03-15 11:15:00
7:34 AM,30.2,24.3,79,29.83,10.0,WNW,16.1,24.2,N/A,,Overcast,300,2013-03-15 11:34:00
7:55 AM,29.3,22.8,77,29.85,10.0,NW,13.8,24.2,N/A,,Overcast,310,2013-03-15 11:55:00
8:15 AM,27.9,21.0,75,29.85,10.0,NW,16.1,21.9,N/A,,Mostly Cloudy,310,2013-03-15 12:15:00
8:34 AM,27.5,20.5,75,29.86,10.0,NW,16.1,21.9,N/A,,Scattered Clouds,320,2013-03-15 12:34:00
8:55 AM,27.9,20.5,74,29.87,10.0,NW,16.1,21.9,N/A,,Mostly Cloudy,310,2013-03-15 12:55:00
9:15 AM,27.9,20.3,73,29.88,10.0,NW,12.7,-,N/A,,Overcast,310,2013-03-15 13:15:00
9:35 AM,27.9,20.1,73,29.88,10.0,NW,13.8,21.9,N/A,,Overcast,310,2013-03-15 13:35:00
9:55 AM,28.0,19.8,71,29.88,10.0,NW,20.7,-,N/A,,Overcast,310,2013-03-15 13:55:00
10:15 AM,28.0,18.0,66,29.88,10.0,WNW,18.4,25.3,N/A,,Mostly Cloudy,300,2013-03-15 14:15:00
10:35 AM,28.4,18.7,67,29.88,10.0,NW,21.9,28.8,N/A,,Mostly Cloudy,310,2013-03-15 14:35:00
10:55 AM,28.2,18.7,67,29.88,10.0,NW,17.3,20.7,N/A,,Scattered Clouds,310,2013-03-15 14:55:00
11:15 AM,28.4,18.7,67,29.88,10.0,NNW,15.0,-,N/A,,Mostly Cloudy,330,2013-03-15 15:15:00
11:35 AM,27.9,19.8,72,29.88,7.0,NW,16.1,21.9,N/A,Snow,Light Snow,320,2013-03-15 15:35:00
11:55 AM,28.0,20.8,74,29.88,7.0,NW,11.5,18.4,N/A,Snow,Light Snow,310,2013-03-15 15:55:00
12:15 PM,28.2,19.6,70,29.88,10.0,NW,16.1,20.7,N/A,Snow,Light Snow,320,2013-03-15 16:15:00
12:35 PM,28.9,18.7,66,29.88,10.0,NW,16.1,21.9,N/A,,Overcast,310,2013-03-15 16:35:00
12:55 PM,29.3,18.5,64,29.88,10.0,WNW,13.8,21.9,N/A,,Mostly Cloudy,300,2013-03-15 16:55:00
1:15 PM,30.2,18.1,61,29.88,10.0,NW,13.8,24.2,N/A,,Mostly Cloudy,310,2013-03-15 17:15:00
1:35 PM,30.2,18.9,63,29.88,10.0,NW,13.8,18.4,N/A,,Overcast,310,2013-03-15 17:35:00
1:55 PM,29.8,18.9,64,29.88,10.0,NW,13.8,25.3,N/A,,Overcast,320,2013-03-15 17:55:00
2:15 PM,28.2,21.7,77,29.88,10.0,NNW,15.0,18.4,N/A,,Overcast,330,2013-03-15 18:15:00
2:35 PM,29.1,17.1,61,29.88,10.0,WNW,15.0,19.6,N/A,,Mostly Cloudy,300,2013-03-15 18:35:00
2:55 PM,29.3,18.1,63,29.88,10.0,WNW,13.8,-,N/A,,Overcast,300,2013-03-15 18:55:00
3:15 PM,30.0,17.4,59,29.88,10.0,WNW,15.0,-,N/A,,Mostly Cloudy,300,2013-03-15 19:15:00
3:35 PM,29.8,17.4,60,29.88,10.0,West,17.3,20.7,N/A,,Scattered Clouds,270,2013-03-15 19:35:00
3:55 PM,29.3,16.5,59,29.89,10.0,NW,15.0,21.9,N/A,,Scattered Clouds,310,2013-03-15 19:55:00
4:15 PM,28.8,15.3,57,29.89,10.0,NW,15.0,20.7,N/A,,Clear,310,2013-03-15 20:15:00
4:35 PM,28.4,14.5,56,29.89,10.0,NW,15.0,-,N/A,,Clear,310,2013-03-15 20:35:00
4:55 PM,28.0,14.0,56,29.89,10.0,NW,16.1,-,N/A,,Clear,310,2013-03-15 20:55:00
5:14 PM,27.9,14.5,57,29.90,10.0,WNW,15.0,19.6,N/A,,Clear,300,2013-03-15 21:14:00
5:35 PM,27.5,14.4,58,29.90,10.0,NW,16.1,-,N/A,,Clear,310,2013-03-15 21:35:00
5:55 PM,26.8,13.3,57,29.91,10.0,NW,11.5,21.9,N/A,,Clear,310,2013-03-15 21:55:00
6:15 PM,26.4,12.4,55,29.91,10.0,NW,12.7,-,N/A,,Clear,310,2013-03-15 22:15:00
6:35 PM,26.1,11.3,54,29.91,10.0,NNW,8.1,-,N/A,,Clear,330,2013-03-15 22:35:00
6:55 PM,25.7,8.6,48,29.91,10.0,NNW,9.2,-,N/A,,Clear,330,2013-03-15 22:55:00
7:15 PM,24.4,7.5,49,29.92,10.0,NW,10.4,17.3,N/A,,Clear,320,2013-03-15 23:15:00
7:35 PM,23.7,8.8,53,29.92,10.0,NW,10.4,-,N/A,,Clear,320,2013-03-15 23:35:00
7:55 PM,23.0,9.3,56,29.93,10.0,NW,8.1,-,N/A,,Clear,310,2013-03-15 23:55:00
8:15 PM,22.6,10.4,59,29.93,10.0,NW,6.9,-,N/A,,Mostly Cloudy,320,2013-03-16 00:15:00
8:35 PM,22.8,11.1,61,29.94,10.0,NW,11.5,-,N/A,,Scattered Clouds,310,2013-03-16 00:35:00
8:55 PM,22.3,10.6,61,29.94,10.0,NW,9.2,-,N/A,,Clear,310,2013-03-16 00:55:00
9:15 PM,21.7,9.0,58,29.94,10.0,NNW,8.1,-,N/A,,Clear,330,2013-03-16 01:15:00
9:35 PM,21.6,9.3,59,29.95,10.0,NW,9.2,-,N/A,,Scattered Clouds,320,2013-03-16 01:35:00
9:55 PM,21.2,9.3,60,29.95,10.0,NW,9.2,-,N/A,,Mostly Cloudy,310,2013-03-16 01:55:00
10:15 PM,20.5,9.3,62,29.95,10.0,NW,10.4,-,N/A,,Scattered Clouds,320,2013-03-16 02:15:00
10:35 PM,20.5,9.7,63,29.95,10.0,NW,8.1,-,N/A,,Scattered Clouds,320,2013-03-16 02:35:00
10:55 PM,20.3,10.0,65,29.95,10.0,NW,5.8,-,N/A,,Mostly Cloudy,320,2013-03-16 02:55:00
11:15 PM,20.3,10.4,66,29.95,10.0,NW,6.9,-,N/A,,Overcast,320,2013-03-16 03:15:00
11:35 PM,19.9,10.6,67,29.95,10.0,NNW,5.8,-,N/A,,Overcast,330,2013-03-16 03:35:00
11:55 PM,20.1,11.1,68,29.95,10.0,NW,5.8,-,N/A,,Overcast,310,2013-03-16 03:55:00